Weather in Sredny Urgal

Russia / Khabarovsk Krai     51°09′26″N   132°56′33″E
temp.,
°C
wind,
m/s
gust,
m/s
humid.,
%
clouds,
%
prec.,
mm/h
press.,
hPa
HPBL,
m
26 february, fri
fri2601:00−21wnw019997 0.1 102620
04:00−22nnw119998 0.3 102620
07:00−22n1199100 0.2 102820
10:00−20nnw129299 0.3 1028297
13:00−15nw2281100 0.1 1028565
16:00−13wnw1278100 0.1 1027724
19:00−19sw119289 0.0 103220
22:00−22ese009645 0.0 103320
27 february, sat
sat2701:00−24e119865 0.0 103420
04:00−24e119979 0.0 103420
07:00−25ne119992 0.0 103319
10:00−20nne119290 0.0 1031122
13:00−14nnw0182100 0.0 1026288
16:00−12nw2286100 0.1 1020212
19:00−13nnw1195100 0.0 101820
22:00−13s1196100 0.3 101726
28 february, sun
sun2801:00−12s2796100 0.9 1014462
04:00−13ssw2796100 1.6 1014332
07:00−16ssw2298100 0.1 101624
10:00−14sw399296 0.2 1017368
13:00−12wsw56720 0.0 1019958
16:00−13wsw566919 0.1 1020953
19:00−19w388663 0.1 1024251
22:00−25ssw119382 0.1 102721
1 march, mon
mon101:00−27se129456 0.0 102919
04:00−28se119475 0.0 103119
07:00−28sse129895 0.0 103319
10:00−25ssw239288 0.1 1033249
13:00−21wsw247439 0.0 1031830
16:00−19w576152 0.0 10311676
19:00−24w378116 0.0 1032160
22:00−28sw128922 0.0 103419
2 march, tue
tue201:00−30sse129461 0.0 103419
04:00−31sse119574 0.0 103519
07:00−33se119972 0.0 103519
10:00−27ssw019166 0.0 1034204
13:00−20ssw128192 0.0 1031476
16:00−18ssw127595 0.0 1028643
19:00−24sse119018 0.0 102920
22:00−26e11919 0.0 103020